Binghamton, NY

1:04 AM EST on November 19, 2019 (GMT -0500)
Binghamton Regional-Link

Weather History for KBGM - September, 2019

Change the Weather History Date:

Sunday, September 22, 2019

  Actual Average Record
Temperature  
Mean Temperature 71 °F 57 °F  
Max Temperature 83 °F 66 °F 85 °F (1965)
Min Temperature 58 °F 48 °F 35 °F (1991)
Degree Days  
Heating Degree Days 0 8  
Month to date heating degree days 95 114  
Since 1 July heating degree days 132 177  
Cooling Degree Days 6 1  
Month to date cooling degree days 15 29  
Year to date cooling degree days 377 377  
Growing Degree Days 20 (Base 50)    
Moisture  
Dew Point 59 °F    
Average Humidity 70    
Maximum Humidity 86    
Minimum Humidity 54    
Precipitation  
Precipitation 0.00 in 0.13 in 1.53 in (1995)
Month to date precipitation 1.60 2.63  
Year to date precipitation 30.39 28.84  
Snow  
Snow 0.00 in 0.00 in 0.00 in (2002)
Month to date snowfall 0.0 0.0  
Since 1 July snowfall 0.0 0.0  
Since 1 September snowfall 0.0 0.0  
Snow Depth 0.00 in    
Sea Level Pressure  
Sea Level Pressure 30.09 in    
Wind  
Wind Speed 7 mph (SSW)    
Max Wind Speed 14 mph    
Max Gust Speed 19 mph    
Visibility 10 miles    
Events      
T = Trace of Precipitation, MM = Missing Value Source: NWS Daily Summary

Daily Weather History Graph

Daily Weather History Graph

Search for Another Location

Airport or City:

Astronomy

Sep. 22, 2019 Rise Set
Actual Time 6:51 AM EDT 7:01 PM EDT
Civil Twilight 6:23 AM EDT 7:29 PM EDT
Nautical Twilight 5:50 AM EDT 8:02 PM EDT
Astronomical Twilight 5:16 AM EDT 8:35 PM EDT
Moon No Moon Rise 3:01 PM EDT (9/22)
Length of Visible Light 13h 06m
Length of Day
12h 10m
Last Quarter, 44% of the Moon is Illuminated
Sep 22
Last Quarter
Sep 28
New
Oct 5
First Quarter
Oct 13
Full
Oct 21
Last Quarter

Hourly Weather History & Observations

Time (EDT) Temp. Heat Index Dew Point Humidity Pressure Visibility Wind Dir Wind Speed Gust Speed Precip Events Conditions
12:53 AM 62.1 °F - 53.1 °F 72% 30.19 in 10.0 mi Calm Calm - N/A   Clear
1:53 AM 60.1 °F - 52.0 °F 75% 30.17 in 10.0 mi South 4.6 mph - N/A   Clear
2:53 AM 59.0 °F - 53.1 °F 81% 30.17 in 10.0 mi South 4.6 mph - N/A   Clear
3:53 AM 62.1 °F - 53.1 °F 72% 30.15 in 10.0 mi South 3.5 mph - N/A   Clear
4:53 AM 57.9 °F - 53.1 °F 84% 30.15 in 10.0 mi SSE 4.6 mph - N/A   Clear
5:53 AM 60.1 °F - 52.0 °F 75% 30.14 in 10.0 mi South 4.6 mph - N/A   Clear
6:53 AM 59.0 °F - 53.1 °F 81% 30.16 in 10.0 mi SSW 5.8 mph - N/A   Clear
7:53 AM 61.0 °F - 54.0 °F 78% 30.16 in 10.0 mi South 3.5 mph - N/A   Clear
8:53 AM 66.9 °F - 57.0 °F 70% 30.15 in 10.0 mi SSW 5.8 mph - N/A   Clear
9:53 AM 69.1 °F - 57.9 °F 68% 30.14 in 10.0 mi SSW 8.1 mph - N/A   Clear
10:53 AM 73.0 °F - 60.1 °F 64% 30.14 in 10.0 mi SW 8.1 mph - N/A   Clear
11:53 AM 75.0 °F - 62.1 °F 64% 30.12 in 10.0 mi SSW 6.9 mph - N/A   Clear
12:53 PM 79.0 °F - 64.0 °F 60% 30.10 in 10.0 mi South 6.9 mph - N/A   Clear
1:53 PM 81.0 °F 82.2 °F 63.0 °F 54% 30.08 in 10.0 mi Variable 4.6 mph - N/A   Clear
2:53 PM 82.0 °F 83.4 °F 64.0 °F 54% 30.05 in 10.0 mi SW 10.4 mph - N/A   Partly Cloudy
3:53 PM 81.0 °F 82.2 °F 63.0 °F 54% 30.03 in 10.0 mi SW 8.1 mph - N/A   Partly Cloudy
4:53 PM 81.0 °F 81.9 °F 62.1 °F 52% 30.02 in 10.0 mi SW 9.2 mph - N/A   Clear
5:53 PM 80.1 °F 81.2 °F 62.1 °F 54% 30.01 in 10.0 mi SSW 6.9 mph - N/A   Mostly Cloudy
6:53 PM 77.0 °F - 62.1 °F 60% 30.01 in 10.0 mi SW 6.9 mph - N/A   Partly Cloudy
7:53 PM 75.0 °F - 62.1 °F 64% 30.01 in 10.0 mi SW 6.9 mph - N/A   Clear
8:53 PM 73.0 °F - 62.1 °F 68% 30.00 in 10.0 mi SSW 6.9 mph - N/A   Clear
9:53 PM 73.0 °F - 62.1 °F 68% 29.99 in 10.0 mi SSW 8.1 mph - N/A   Clear
10:53 PM 72.0 °F - 62.1 °F 71% 29.98 in 10.0 mi SSW 8.1 mph - N/A   Clear
11:53 PM 71.1 °F - 61.0 °F 70% 29.96 in 10.0 mi SSW 5.8 mph - N/A   Clear